Location: Feydey
(46.3431°N, 7.0106°E)
Time: 20:00:38
(UTC+00:00)

Cosmos 1328 - Pass Details

Date: 20 October 2021
Orbit: 529 x 552 km, 82.5° (Epoch: 03 December)

Event Time Altitude Azimuth Distance (km) Brightness Sun altitude
Rises 17:47:31 0° 353° (N) 2,733 7.4 -13.0°
Reaches altitude 10° 17:49:42 10° 356° (N) 1,836 6.5 -13.3°
Maximum altitude 17:53:43 66° 79° (E) 607 3.7 -14.0°
Drops below altitude 10° 17:57:43 10° 163° (SSE) 1,826 6.3 -14.7°
Sets 17:59:53 0° 166° (SSE) 2,715 7.2 -15.1°
